www.pogodaiklimat.ru
Время
(UTC), дата
18 8.01
21 8.01
00 9.01
03 9.01
06 9.01
09 9.01
12 9.01
15 9.01
18 9.01
21 9.01
00 10.01
03 10.01
06 10.01
09 10.01
12 10.01
15 10.01
18 10.01
21 10.01
00 11.01
03 11.01
06 11.01
09 11.01
12 11.01
15 11.01
18 11.01
21 11.01
00 12.01
03 12.01
06 12.01
09 12.01
12 12.01
15 12.01
18 12.01
21 12.01
00 13.01
03 13.01
06 13.01
09 13.01
12 13.01
15 13.01
18 13.01
21 13.01
00 14.01
03 14.01
06 14.01
09 14.01
12 14.01
15 14.01
18 14.01
21 14.01
00 15.01
03 15.01
06 15.01
09 15.01
12 15.01
15 15.01
Ветер
(напр.,м/с)
Видим. Явления Облачность Т
(С)
Тd
(С)
f
(%)
Тe
(С)
Тes
(С)
Комфортность P
(гПа)
Po
(гПа)
Тmin
(С)
Tmax
(С)
R
(мм)
R24
(мм)
S
(см)
С 1 10 км в посл. час ливневой снег 9/8 600 м
[Cb cap Ac As]
-10.7 -11.8 92 -13 -13 1026.7 1023.3 -10.1 1
штиль 0 10 км 9/9 1000 м
[Sc]
-10.6 -11.8 91 -11 -11 1027.1 1023.7
штиль 0 10 км 9/9 1000 м
[Sc]
-10.5 -11.6 92 -11 -11 1027.0 1023.6
С 1 10 км слаб. снег 9/8 600 м
[Sc As op]
-10.8 -12.0 91 -13 -13 1026.5 1023.1 -11.0 0.2
З 1 10 км слаб. снег 9/8 600 м
[Sc As op]
-11.2 -12.3 92 -13 -13 1026.5 1023.1 -11.2 0.0 35
штиль 0 20 км {снег} 9/8 1000 м
[Sc Ac As]
-11.5 -12.7 91 -12 -12 1026.5 1023.1
СВ 1 10 км {снег} 9/5 1000 м
[Sc Ac As Cs]
-12.6 -13.9 90 -15 -15 1026.0 1022.6
С 1 10 км в посл. час снег 4/4 600 м
[Sc]
-17.6 -19.1 88 -20 -20 1025.8 1022.3 0.0
С 1 10 км {снег} 4/0
[Cs]
-20.5 -22.4 85 -24 -24 1025.7 1022.2 -11.2 0.0
С 2 10 км 3/0
[Ci sp]
-20.9 -22.9 84 -27 -27 1025.1 1021.6
С 1 10 км 9/0
[Ac trans]
-20.5 -22.6 83 -24 -24 1024.4 1020.9
СВ 1 10 км 5/1 600 м
[Sc Ac trans Ci sp]
-22.8 -25.0 82 -26 -26 1023.5 1020.0 -23.3
С 1 10 км слаб. ливневой снег 6/3 600 м
[Cb cap Ac lent Cs]
-22.1 -24.4 82 -25 -25 1023.1 1019.6 -23.3 0.0 34
С 1 10 км {ливн. снег} 8/0
[Ac lent Cc]
-24.3 -26.8 80 -28 -28 1023.4 1019.8
С 2 10 км {ливн. снег} 1/0
[Cs]
-24.9 -27.5 79 -32 -32 опасность
обморожения
1024.2 1020.6
С 1 4000 м слаб. снег 9/3 600 м
[Sc As op Cs]
-25.9 -28.6 78 -30 -30 1024.5 1020.9 0.0
СВ 2 10 км слаб. снег 4/0
[As op]
-27.4 -30.1 78 -34 -34 опасность
обморожения
1025.3 1021.7 -22.1 0.0
С 2 4000 м слаб. снег 6/3 600 м
[Sc As op]
-25.9 -28.5 79 -33 -33 опасность
обморожения
1025.5 1021.9
С 2 10 км {снег} 4/0
[Ac As]
-27.4 -30.1 78 -34 -34 опасность
обморожения
1025.7 1022.1
штиль 0 10 км ясно -28.1 -31.0 76 -28 -28 1025.8 1022.2 -28.2 0.2
С 2 10 км ясно -28.9 -31.8 76 -36 -36 опасность
обморожения
1026.2 1022.6 -28.9 0.2 34
штиль 0 2000 м слаб. ливневой снег 10/10 600 м
[Cb cap]
-22.2 -24.4 82 -22 -22 1026.5 1023.0
штиль 0 4000 м слаб. снег 10/10 300 м
[Frnb Ns]
-18.2 -20.1 85 -18 -18 1025.9 1022.4
Ю 1 2000 м снег 10/10 300 м
[Frnb Ns]
-16.8 -18.3 88 -20 -20 1025.7 1022.2 1
Ю 2 2000 м снег 10/10 300 м
[Frnb Ns]
-13.0 -14.3 90 -18 -18 1026.2 1022.8 -12.9 2
Ю 2 4000 м слаб. снег {метель} 10/10 300 м
[Frnb Ns]
-13.4 -14.8 89 -18 -18 1027.0 1023.6
Ю 2 4000 м слаб. снег {метель} 10/10 300 м
[Frnb Ns]
-13.3 -14.6 90 -18 -18 1027.3 1023.9
Ю 1 10 км слаб. снег 10/10 300 м
[Frnb Ns]
-14.1 -15.5 89 -17 -17 1027.5 1024.1 -16.3 1
Ю 1 10 км слаб. снег 10/10 300 м
[Frnb Ns]
-14.6 -16.1 88 -17 -17 1027.7 1024.3 -14.6 0.8 43
штиль 0 4000 м слаб. ливневой снег 9/9 300 м
[Cb cap]
-15.3 -16.9 88 -15 -15 1029.0 1025.5
ЮВ 2 10 км в посл. час ливневой снег 9/8 300 м
[Cb cap Ac As Ci sp]
-14.5 -16.0 88 -19 -19 1029.4 1025.9
Ю 2 10 км слаб. ливневой снег 9/9 300 м
[Cb cap]
-15.1 -16.7 88 -20 -20 1030.0 1026.5 0.5
Ю 2 10 км {ливн. снег} 9/9 300 м
[Sc]
-18.0 -19.8 86 -23 -23 1031.4 1027.9 -14.5 0.3
З 1 10 км 5/3 600 м
[Sc Ac trans Ci fib]
-22.5 -24.7 82 -26 -26 1032.7 1029.1
С 2 10 км ясно -26.3 -28.9 79 -33 -33 опасность
обморожения
1033.3 1029.7
С 2 10 км 3/0
[Ac trans Ci fib]
-27.2 -29.9 78 -34 -34 опасность
обморожения
1034.0 1030.4 -27.2 0.0
С 1 10 км ясно -30.0 -33.1 74 -34 -34 опасность
обморожения
1034.6 1030.9 -30.1 43
С 2 20 км 3/0
[Ac lent]
-29.3 -32.4 74 -37 -37 опасность
обморожения
1035.1 1031.4
С 2 20 км ясно -28.4 -31.3 76 -36 -36 опасность
обморожения
1034.8 1031.1
С 1 10 км 3/0
[Ac trans]
-29.0 -31.9 76 -33 -33 опасность
обморожения
1034.3 1030.6
С 2 10 км ясно -29.9 -33.0 74 -37 -37 опасность
обморожения
1033.3 1029.6 -28.1
С 1 10 км 9/6 300 м
[St Ac trans Ci sp]
-29.2 -32.2 75 -33 -33 опасность
обморожения
1032.4 1028.7
С 2 10 км 3/0
[Ac lent]
-30.2 -33.3 74 -38 -38 опасность
обморожения
1031.7 1028.0
С 1 10 км 5/3 200 м
[St Ac lent]
-31.1 -34.3 73 -35 -35 опасность
обморожения
1030.5 1026.8 -31.3
С 1 10 км слаб. снег 10/10 200 м
[St]
-28.5 -31.5 75 -32 -32 опасность
обморожения
1029.0 1025.4 -31.3 0.0 38
С 1 10 км {снег} 9/3 200 м
[St Cc]
-29.3 -32.4 74 -33 -33 опасность
обморожения
1028.5 1024.8
С 1 10 км {снег} 9/3 200 м
[St Cs]
-30.0 -33.2 74 -34 -34 опасность
обморожения
1026.8 1023.1
С 1 10 км 9/6 300 м
[Sc Ac As Cs]
-30.3 -33.5 73 -34 -34 опасность
обморожения
1024.7 1021.0 0.0
штиль 0 10 км 10/10 300 м
[Sc]
-24.8 -27.3 80 -25 -25 1022.5 1018.9 -24.7 0.0
С 1 10 км слаб. снег 10/10 300 м
[St]
-22.8 -25.1 81 -26 -26 1020.4 1016.9
штиль 0 10 км слаб. снег 10/10 300 м
[Frnb Ns]
-19.8 -21.8 84 -20 -20 1018.5 1015.0
С 1 10 км {снег} ясно -17.1 -18.7 87 -20 -20 1016.9 1013.5 -30.0 0.4
С 1 10 км слаб. снег 9/6 600 м
[Sc As op]
-13.3 -14.7 89 -16 -16 1016.0 1012.6 -24.8 0.4 38
С 1 10 км {снег} 5/3 600 м
[Sc Ac trans Ci fib]
-13.6 -14.8 91 -16 -16 1015.8 1012.4
С 1 20 км {снег} 9/3 600 м
[Sc Ac lent Cc]
-14.8 -16.2 89 -17 -17 1015.3 1011.9
штиль 0 10 км 8/3 600 м
[Sc Ac trans Cc]
-16.7 -18.3 87 -17 -17 1014.9 1011.5 0.0
Местоположение метеостанции Кандалакша (Мурманская область, Россия): широта 67.15 долгота 32.35 высота над уровнем моря 25 м.
В архиве по умолчанию представлена погода в Кандалакше за последнюю неделю. Архивные данные за месяц целиком и за предыдущие месяцы, начиная с января 2011 года, Вы можете получить, выбрав интересующий диапазон дат из раскрывающегося списка и нажав кнопку "Найти!".
*Определитесь, кто Вы:
Внимание! Время в таблицах - всемирное. Для получения местного времени необходимо прибавить поправку, которая равна 3 ч.
Смотрите также архив погоды в соседних городах и на ближайших метеорологических станциях:
Партнеры нашего сайта:      
Пояснения к столбцам:
  • Ветер - указаны скорость ветра в м/с - средняя за 10 мин, порывы в срок и между сроками (в фигурных скобках) и направление, откуда дует ветер: С - северный,
  • СВ - северо-восточный, В - восточный, ЮВ - юго-восточный, Ю - южный, ЮЗ - юго-западный, З - западный, СЗ - северо-западный.
  • Видимость - горизонтальная дальность видимости в метрах или километрах. При видимости от 1 до 10 км при отсутствии осадков обычно наблюдается дымка, при ухудшении видимости до 1 км и менее - туман. В сухую погоду видимость может ухудшаться дымом, пылью или мглою.
  • Явления - указаны атмосферные явления, наблюдавшиеся в срок или в последний час перед сроком; фигурными скобками обозначены явления, наблюдавшиеся между сроками (за 1-3 часа до срока); квадратными скобками обозначены град или гололедные отложения с указанием их диаметра в мм.
  • Облачность - указаны через наклонную черту общая и нижняя облачность в баллах и высота нижней границы облаков в метрах; квадратными скобками обозначены формы облаков: Ci - перистые, Cs - перисто-слоистые, Cc - перисто-кучевые, Ac - высококучевые, As - высокослоистые, Sc - слоисто-кучевые, Ns - слоисто-дождевые, Cu - кучевые, Cb - кучево-дождевые. Подробнее классификацию облаков см. в Атласе облаков (PDF).
  • T - Температура воздуха - температура, измеренная на высоте 2 м над землей.
  • Td - Температура точки росы - температура, при понижении до которой содержащийся в воздухе водяной пар достигнет насыщения.
  • f - Относительная влажность воздуха - влажноcть воздуха, измеренная на высоте 2 м над землей.
  • Te - Эффективная температура - температура, которую ощущает одетый по сезону человек в тени. Характеристика душности погоды. При расчете учитывается влияние влажности воздуха и скорости ветра на теплоощущения человека.
  • Tes - Эффективная температура на солнце - температура, которую ощущает человек, с поправкой на солнечный нагрев. Характеристика знойности погоды. Зависит от высоты солнца над горизонтом, облачности и скорости ветра. Ночью, в пасмурную погоду, а также при ветре 12 м/с и более поправка равна нулю.
  • P - Атмосферное давление - приведенное к уровню моря атмосферное давление.
  • Po - Атмосферное давление - измеренное на уровне метеостанции атмосферное давление.
  • Tmin - Минимальная температура - минимум температуры воздуха на высоте 2 м над землей.
  • Tmax - Максимальная температура - максимум температуры воздуха на высоте 2 м над землей.
  • R - Количество осадков - Количество выпавших осадков за период времени, мм. При наведении курсора мыши на число - период времени, за который выпало указанное количество осадков.
  • R24 - Количество осадков - Количество выпавших осадков за 24 часа, мм.
  • S - Снежный покров - Высота снежного покрова, см. При наведении курсора мыши на число - состояние снежного покрова и степень покрытия местности в баллах.